Location: Aressy
(43.2833°N, 0.3167°W)
Time: 07:01:55
(UTC+00:00)

Cosmos 1689 Rocket - Visible Passes

Search period start: 09 May 2021 00:00
Search period end: 19 May 2021 00:00
Orbit: 346 x 360 km, 97.5° (Epoch: 08 May)

Date Brightness Start Highest point End Pass type
(mag) Time Alt. Az. Time Alt. Az. Time Alt. Az.
11 May 5.3 20:08:35 10° NNW 20:10:13 14° WNW 20:11:51 10° WSW visible
14 May 5.0 19:56:08 10° NNW 19:58:21 21° WNW 20:00:34 10° WSW visible
18 May 5.3 20:10:38 10° NNW 20:12:18 15° WNW 20:13:57 10° WSW visible
